EW8060 Weather Reports


time (UTC)temp
F
wind
direction
speed
knots
gust
knots
rain 1hr
in
rain 24hr
in
rain mn
in
humidity
%
barometer
mb
20260510140015 69 163 0.0 0.0 0.00 0.00 0.00 59 1017.4
20260510135015 68 84 0.0 0.0 0.00 0.00 0.00 59 1017.5
20260510134014 68 58 0.0 0.0 0.00 0.00 0.00 60 1017.4
20260510133014 67 100 0.0 0.0 0.00 0.00 0.00 61 1017.5
20260510132014 66 115 0.0 0.0 0.00 0.00 0.00 62 1017.5
20260510131033 65 134 0.0 0.0 0.00 0.00 0.00 64 1017.4
20260510130013 64 89 0.0 0.0 0.00 0.00 0.00 66 1017.3
20260510125013 63 118 0.0 0.0 0.00 0.00 0.00 67 1017.3
20260510124012 62 111 0.0 0.0 0.00 0.00 0.00 69 1017.2
20260510123012 62 121 0.0 0.0 0.00 0.00 0.00 69 1017.2
20260510122013 60 119 0.0 0.0 0.00 0.00 0.00 71 1017.1
20260510121012 59 101 0.0 0.0 0.00 0.00 0.00 72 1017.0
20260510120011 58 84 0.0 0.0 0.00 0.00 0.00 73 1017.0
20260510115011 58 114 0.0 0.0 0.00 0.00 0.00 74 1016.9
20260510114011 57 201 0.0 0.0 0.00 0.00 0.00 76 1016.8
20260510113010 56 80 0.0 0.0 0.00 0.00 0.00 76 1016.8
20260510112010 55 110 0.0 0.0 0.00 0.00 0.00 78 1016.6
20260510111030 54 115 0.0 0.0 0.00 0.00 0.00 79 1016.4
20260510110030 54 117 0.0 0.0 0.00 0.00 0.00 79 1016.1
20260510105009 53 119 0.0 0.0 0.00 0.00 0.00 79 1016.0
20260510104009 53 119 0.0 0.0 0.00 0.00 0.00 80 1015.9
20260510103009 53 119 0.0 0.0 0.00 0.00 0.00 81 1015.7
20260510102009 52 161 0.0 0.0 0.00 0.00 0.00 83 1015.6
20260510101008 52 161 0.0 0.0 0.00 0.00 0.00 81 1015.6
20260510100110 52 161 0.0 0.0 0.00 0.00 0.00 79 1015.4
20260510095008 55 159 0.0 0.0 0.00 0.00 0.00 76 1015.5
20260510094007 56 159 0.0 0.0 0.00 0.00 0.00 73 1015.3
20260510093008 58 159 0.0 0.0 0.00 0.00 0.00 70 1015.1
20260510092007 58 116 0.0 0.0 0.00 0.00 0.00 71 1015.0
20260510091007 57 165 0.0 0.0 0.00 0.00 0.00 72 1014.9
20260510090007 56 184 0.0 0.0 0.00 0.00 0.00 73 1014.9
20260510085026 54 165 0.0 0.0 0.00 0.00 0.00 78 1014.9
20260510084006 52 210 0.0 0.0 0.00 0.00 0.00 82 1014.9
20260510083006 52 225 0.0 0.0 0.00 0.00 0.00 79 1015.0
20260510082005 52 217 0.0 0.0 0.00 0.00 0.00 78 1014.9
20260510081025 53 198 0.0 0.0 0.00 0.00 0.00 77 1014.8
20260510080005 53 119 0.0 0.0 0.00 0.00 0.00 79 1014.6
20260510075045 52 119 0.0 0.0 0.00 0.00 0.00 79 1014.4
20260510074005 53 119 0.0 0.0 0.00 0.00 0.00 79 1014.4
20260510073005 53 119 0.0 0.0 0.00 0.00 0.00 77 1014.3
20260510072004 54 119 0.0 0.0 0.00 0.00 0.00 76 1014.4
20260510071004 55 120 0.0 0.0 0.00 0.00 0.00 73 1014.2
20260510070023 55 120 0.0 0.0 0.00 0.00 0.00 73 1014.2
20260510065003 55 121 0.0 0.0 0.00 0.00 0.00 74 1014.2
20260510064003 56 123 0.0 0.0 0.00 0.00 0.00 72 1014.3
20260510063003 56 123 0.0 0.0 0.00 0.00 0.00 71 1014.3
20260510062002 57 131 0.0 0.0 0.00 0.00 0.00 70 1014.4
20260510061002 57 133 0.0 0.0 0.00 0.00 0.00 69 1014.4
20260510060022 58 134 0.0 0.0 0.00 0.00 0.00 67 1014.3
20260510055001 58 114 0.0 0.0 0.00 0.00 0.00 67 1014.4
20260510054001 58 119 0.0 0.0 0.00 0.00 0.00 67 1014.4
20260510053001 58 128 0.0 0.0 0.00 0.00 0.00 67 1014.4
20260510052000 57 282 0.0 0.0 0.00 0.00 0.00 68 1014.3
20260510051000 57 282 0.0 0.0 0.00 0.00 0.00 68 1014.3
20260510050000 58 282 0.0 0.0 0.00 0.00 0.00 67 1014.5
20260510044959 59 282 0.0 0.0 0.00 0.00 0.00 66 1014.4
20260510043959 60 282 0.0 0.0 0.00 0.00 0.00 63 1014.4
20260510042958 60 282 0.0 0.0 0.00 0.00 0.00 62 1014.4
20260510042018 61 284 0.0 0.0 0.00 0.00 0.00 61 1014.4
20260510040958 60 284 0.0 0.0 0.00 0.00 0.00 62 1014.3
20260510035958 60 304 0.0 0.0 0.00 0.00 0.00 63 1014.3
20260510035017 60 304 0.0 0.0 0.00 0.00 0.00 62 1014.3
20260510033957 60 305 0.0 0.0 0.00 0.00 0.00 62 1014.1
20260510032957 60 306 0.0 0.0 0.00 0.00 0.00 62 1014.2
20260510031956 60 315 0.0 0.0 0.00 0.00 0.00 61 1014.1
20260510030956 60 315 0.0 0.0 0.00 0.00 0.00 61 1014.0
20260510025956 61 315 0.0 0.0 0.00 0.00 0.00 60 1013.9
20260510024955 61 315 0.0 0.0 0.00 0.00 0.00 59 1013.9
20260510023955 62 315 0.0 0.0 0.00 0.00 0.00 58 1013.9
20260510023016 63 315 0.0 0.0 0.00 0.00 0.00 56 1013.9
20260510021955 64 111 0.0 0.0 0.00 0.00 0.00 53 1013.5
20260510020954 64 103 0.0 0.0 0.00 0.00 0.00 54 1013.4
20260510020014 63 232 0.0 0.0 0.00 0.00 0.00 55 1013.4
20260510014954 63 232 0.0 0.0 0.00 0.00 0.00 56 1013.2
20260510013953 63 232 0.0 0.0 0.00 0.00 0.00 55 1012.9
20260510012953 63 229 0.0 0.0 0.00 0.00 0.00 55 1012.7
20260510011952 64 229 0.0 0.0 0.00 0.00 0.00 54 1012.5
20260510011012 65 229 0.0 0.0 0.00 0.00 0.00 53 1012.4
20260510005952 66 229 0.0 0.0 0.00 0.00 0.00 50 1012.4
20260510004951 67 83 0.0 0.0 0.00 0.00 0.00 50 1012.1
20260510003951 69 82 0.0 0.0 0.00 0.00 0.00 46 1012.2
20260510003031 69 83 0.0 0.0 0.00 0.00 0.00 45 1012.1
20260510001950 70 204 0.0 0.0 0.00 0.00 0.00 45 1012.0
20260510000951 71 72 0.0 0.0 0.00 0.00 0.00 44 1011.9
20260509235950 72 71 0.0 0.0 0.00 0.00 0.00 43 1011.6
20260509234949 72 132 0.0 0.0 0.00 0.00 0.00 41 1011.5
20260509234009 73 78 0.0 0.0 0.00 0.00 0.00 41 1011.3
20260509232949 74 83 0.0 0.0 0.00 0.00 0.00 40 1011.2
20260509231949 74 90 0.0 0.0 0.00 0.00 0.00 40 1011.2
20260509230948 74 17 0.0 0.0 0.00 0.00 0.00 40 1011.0
20260509225948 73 76 0.0 0.0 0.00 0.00 0.00 41 1010.9
20260509225009 73 67 0.0 0.0 0.00 0.00 0.00 40 1011.0
20260509223947 74 87 0.0 0.0 0.00 0.00 0.00 40 1011.0
20260509222947 73 70 0.0 0.0 0.00 0.00 0.00 41 1010.9
20260509222027 74 107 0.0 0.0 0.00 0.00 0.00 41 1011.0
20260509220947 74 84 0.0 0.0 0.00 0.00 0.00 41 1010.9
20260509215948 74 69 0.0 0.0 0.00 0.00 0.00 41 1010.8
20260509214946 74 92 0.0 0.0 0.00 0.00 0.00 40 1010.8
20260509213945 75 71 0.0 0.0 0.00 0.00 0.00 40 1010.8
20260509212945 75 94 0.0 0.0 0.00 0.00 0.00 39 1010.7
20260509211945 75 120 0.0 0.0 0.00 0.00 0.00 40 1010.6
20260509210945 75 98 0.0 0.0 0.00 0.00 0.00 40 1010.6
20260509205945 75 121 0.0 0.0 0.00 0.00 0.00 39 1010.5
20260509204944 76 59 0.0 0.0 0.00 0.00 0.00 40 1010.4
20260509203944 76 88 0.0 0.0 0.00 0.00 0.00 38 1010.4
20260509202943 76 113 0.0 0.0 0.00 0.00 0.00 38 1010.5
20260509201943 77 115 0.0 0.0 0.00 0.00 0.00 43 1010.4
20260509200943 77 355 0.0 0.0 0.00 0.00 0.00 44 1010.4
20260509195944 75 10 0.0 0.0 0.00 0.00 0.00 47 1010.4
20260509194942 74 5 0.0 0.0 0.00 0.00 0.00 48 1010.5
20260509193942 73 355 0.0 0.0 0.00 0.00 0.00 48 1010.6
20260509192941 74 81 0.0 0.0 0.00 0.00 0.00 46 1010.5
20260509191941 74 350 0.0 0.0 0.00 0.00 0.00 49 1010.7
20260509190941 74 290 0.0 0.0 0.00 0.00 0.00 47 1010.7
20260509185940 74 300 0.0 0.9 0.00 0.00 0.00 49 1010.9
20260509184940 74 326 0.0 0.0 0.00 0.00 0.00 49 1011.0
20260509183940 74 5 0.0 0.0 0.00 0.00 0.00 51 1010.9
20260509182940 73 14 0.0 0.0 0.00 0.00 0.00 52 1011.1
20260509181939 73 328 0.0 0.0 0.00 0.00 0.00 52 1011.2
20260509180939 74 26 0.0 0.0 0.00 0.00 0.00 49 1011.4
20260509175939 73 46 0.0 0.0 0.00 0.00 0.00 51 1011.6
20260509174938 72 11 0.0 0.0 0.00 0.00 0.00 54 1011.6
20260509173938 71 319 0.0 0.0 0.00 0.00 0.00 54 1011.7
20260509172938 70 14 0.0 0.0 0.00 0.00 0.00 56 1011.7
20260509171937 69 306 0.0 0.0 0.00 0.00 0.00 56 1012.0
20260509170937 69 107 0.0 0.0 0.00 0.00 0.00 57 1012.0
20260509165957 69 111 0.0 0.0 0.00 0.00 0.00 57 1012.3
20260509164957 70 273 0.0 0.0 0.00 0.00 0.00 56 1012.3
20260509163936 70 14 0.0 0.0 0.00 0.00 0.00 55 1012.4
20260509162936 71 15 0.0 0.0 0.00 0.00 0.00 54 1012.5
20260509161935 70 47 0.0 0.0 0.00 0.00 0.00 55 1012.5
20260509160935 70 29 0.0 1.7 0.00 0.00 0.00 58 1012.4
20260509155935 70 5 0.0 0.0 0.00 0.00 0.00 58 1012.3
20260509154955 68 305 0.0 0.0 0.00 0.00 0.00 59 1012.3
20260509153955 68 325 0.0 0.0 0.00 0.00 0.00 60 1012.6
20260509152934 68 310 0.0 0.0 0.00 0.00 0.00 60 1013.0
20260509151934 67 350 0.0 0.0 0.00 0.00 0.00 59 1012.9
20260509150954 67 348 0.0 0.0 0.00 0.00 0.00 59 1012.8
20260509145954 66 344 0.0 0.0 0.00 0.00 0.00 59 1012.5
20260509144933 66 292 0.0 0.0 0.00 0.00 0.00 59 1012.9
20260509143933 66 263 0.0 0.0 0.00 0.00 0.00 59 1013.0
20260509142932 65 355 0.0 0.0 0.00 0.00 0.00 61 1013.2
20260509141952 63 331 0.0 0.0 0.00 0.00 0.00 62 1013.2
20260509140932 62 325 0.0 0.0 0.00 0.00 0.00 65 1013.3